KB3YPI Weather Reports


time (UTC)temp
C
wind
direction
speed
KPH
gust
KPH
rain 1hr
cm
rain 24hr
cm
rain mn
cm
humidity
%
barometer
mb
20260505192008 27 208 0.0 0.0 0.00 0.00 0.00 35 1006.2
20260505191509 27 219 0.0 0.0 0.00 0.00 0.00 37 1006.3
20260505191011 27 201 0.0 0.0 0.00 0.00 0.00 36 1006.3
20260505190507 27 153 0.0 0.0 0.00 0.00 0.00 36 1006.3
20260505190006 27 173 0.0 0.0 0.00 0.00 0.00 37 1006.4
20260505185504 28 142 0.0 0.0 0.00 0.00 0.00 36 1006.4
20260505185004 27 232 0.0 0.0 0.00 0.00 0.00 38 1006.5
20260505184503 27 213 0.0 0.0 0.00 0.00 0.00 36 1006.6
20260505184003 27 234 0.0 0.0 0.00 0.00 0.00 38 1006.8
20260505183500 27 122 0.0 0.0 0.00 0.00 0.00 37 1006.7
20260505183101 27 247 0.0 0.0 0.00 0.00 0.00 38 1006.7
20260505182559 26 195 0.0 0.0 0.00 0.00 0.00 36 1006.9
20260505182059 27 267 0.0 0.0 0.00 0.00 0.00 35 1006.9
20260505181556 27 236 0.0 0.0 0.00 0.00 0.00 36 1007.0
20260505181056 27 225 0.0 0.0 0.00 0.00 0.00 36 1007.1
20260505180555 27 227 0.0 0.0 0.00 0.00 0.00 37 1006.9
20260505180055 27 134 0.0 0.0 0.00 0.00 0.00 37 1007.1
20260505175554 27 163 0.0 0.0 0.00 0.00 0.00 38 1007.2
20260505175055 27 65 0.0 0.0 0.00 0.00 0.00 39 1007.2
20260505175053 27 164 0.0 0.0 0.00 0.00 0.00 39 1007.2
20260505174552 27 103 0.0 0.0 0.00 0.00 0.00 38 1007.2
20260505174051 26 198 0.0 0.0 0.00 0.00 0.00 42 1007.2
20260505173552 26 125 0.0 0.0 0.00 0.00 0.00 39 1007.2
20260505173051 26 211 0.0 0.0 0.00 0.00 0.00 38 1007.4
20260505172549 26 323 0.0 0.0 0.00 0.00 0.00 39 1007.5
20260505172048 26 111 0.0 0.0 0.00 0.00 0.00 41 1007.3
20260505171545 26 236 0.0 0.0 0.00 0.00 0.00 39 1007.4
20260505171046 26 178 0.0 0.0 0.00 0.00 0.00 37 1007.5
20260505170544 26 277 0.0 0.0 0.00 0.00 0.00 39 1007.6
20260505170044 26 116 0.0 0.0 0.00 0.00 0.00 38 1007.5
20260505165542 26 140 0.0 0.0 0.00 0.00 0.00 37 1007.7
20260505165043 26 199 0.0 0.0 0.00 0.00 0.00 36 1007.8
20260505164539 26 204 0.0 0.0 0.00 0.00 0.00 39 1007.9
20260505164039 26 221 0.0 0.0 0.00 0.00 0.00 38 1008.0
20260505163539 26 179 0.0 0.0 0.00 0.00 0.00 39 1008.1
20260505163037 26 234 0.0 0.0 0.00 0.00 0.00 40 1008.2
20260505162536 26 225 0.0 0.0 0.00 0.00 0.00 40 1008.3
20260505162036 26 167 0.0 0.0 0.00 0.00 0.00 40 1008.3
20260505161506 26 275 0.0 0.0 0.00 0.00 0.00 40 1008.3
20260505161004 26 239 0.0 0.0 0.00 0.00 0.00 41 1008.3
20260505160504 26 235 0.0 0.0 0.00 0.00 0.00 39 1008.4
20260505153054 25 257 0.0 0.0 0.00 0.00 0.00 49 1008.4
20260505152555 25 151 0.0 0.0 0.00 0.00 0.00 46 1008.5
20260505152052 25 217 0.0 0.0 0.00 0.00 0.00 45 1008.6
20260505151550 25 213 0.0 0.0 0.00 0.00 0.00 46 1008.5
20260505151049 25 244 0.0 0.0 0.00 0.00 0.00 47 1008.4
20260505150548 25 181 0.0 0.0 0.00 0.00 0.00 46 1008.6
20260505140529 22 157 0.0 0.0 0.00 0.00 0.00 53 1009.2
20260505125003 -17 0.0 0.0 0.00 0.00 0.00 1009.8
20260505124502 -17 0.0 0.0 0.00 0.00 0.00 1009.9
20260505124057 -17 0.0 0.0 0.00 0.00 0.00 1009.9
20260505123558 -17 0.0 0.0 0.00 0.00 0.00 1009.8
20260505123057 -17 0.0 0.0 0.00 0.00 0.00 1009.8
20260505122556 -17 0.0 0.0 0.00 0.00 0.00 1009.8
20260505122052 -17 0.0 0.0 0.00 0.00 0.00 1009.8
20260505121550 -17 0.0 0.0 0.00 0.00 0.00 1009.8
20260505121049 -17 0.0 0.0 0.00 0.00 0.00 1009.7
20260505120548 -17 0.0 0.0 0.00 0.00 0.00 1009.7
20260505120050 -17 0.0 0.0 0.00 0.00 0.00 1009.7
20260505115549 13 146 0.0 0.0 0.00 0.00 0.00 88 1009.7
20260505115044 13 146 0.0 0.0 0.00 0.00 0.00 88 1009.6
20260505114546 13 146 0.0 0.0 0.00 0.00 0.00 89 1009.6
20260505114013 13 146 0.0 0.0 0.00 0.00 0.00 89 1009.5
20260505113515 12 146 0.0 0.0 0.00 0.00 0.00 91 1009.4
20260505113011 12 146 0.0 0.0 0.00 0.00 0.00 93 1009.3
20260505112511 11 146 0.0 0.0 0.00 0.00 0.00 94 1009.4
20260505112010 10 146 0.0 0.0 0.00 0.00 0.00 94 1009.2
20260505111510 10 146 0.0 0.0 0.00 0.00 0.00 93 1009.3
20260505111009 10 146 0.0 0.0 0.00 0.00 0.00 93 1009.2
20260505110505 10 146 0.0 0.0 0.00 0.00 0.00 92 1009.1
20260505102054 9 146 0.0 0.0 0.00 0.00 0.00 90 1008.9
20260505101552 9 146 0.0 0.0 0.00 0.00 0.00 90 1009.0
20260505101052 9 146 0.0 0.0 0.00 0.00 0.00 90 1008.9
20260505100522 9 146 0.0 0.0 0.00 0.00 0.00 89 1008.9
20260505100020 10 146 0.0 0.0 0.00 0.00 0.00 89 1008.9
20260505095518 10 146 0.0 0.0 0.00 0.00 0.00 89 1008.8
20260505095017 10 146 0.0 0.0 0.00 0.00 0.00 89 1008.7
20260505094525 10 146 0.0 0.0 0.00 0.00 0.00 89 1008.6
20260505094017 10 146 0.0 0.0 0.00 0.00 0.00 89 1008.6
20260505093546 10 146 0.0 0.0 0.00 0.00 0.00 88 1008.5
20260505093045 10 146 0.0 0.0 0.00 0.00 0.00 88 1008.6
20260505092546 10 146 0.0 0.0 0.00 0.00 0.00 88 1008.5
20260505092044 10 146 0.0 0.0 0.00 0.00 0.00 87 1008.4
20260505091543 10 146 0.0 0.0 0.00 0.00 0.00 87 1008.5
20260505091042 10 146 0.0 0.0 0.00 0.00 0.00 87 1008.4
20260505090539 10 146 0.0 0.0 0.00 0.00 0.00 86 1008.6
20260505090040 10 146 0.0 0.0 0.00 0.00 0.00 86 1008.4
20260505085537 10 146 0.0 0.0 0.00 0.00 0.00 85 1008.5
20260505085037 11 146 0.0 0.0 0.00 0.00 0.00 85 1008.4
20260505084543 11 146 0.0 0.0 0.00 0.00 0.00 85 1008.4
20260505084034 11 146 0.0 0.0 0.00 0.00 0.00 85 1008.4
20260505083534 11 146 0.0 0.0 0.00 0.00 0.00 85 1008.4
20260505083033 11 146 0.0 0.0 0.00 0.00 0.00 84 1008.5
20260505082532 11 146 0.0 0.0 0.00 0.00 0.00 84 1008.5
20260505082033 11 146 0.0 0.0 0.00 0.00 0.00 84 1008.4
20260505081532 11 146 0.0 0.0 0.00 0.00 0.00 84 1008.3
20260505081032 11 146 0.0 0.0 0.00 0.00 0.00 83 1008.4
20260505080600 11 146 0.0 0.0 0.00 0.00 0.00 83 1008.3
20260505080108 11 146 0.0 0.0 0.00 0.00 0.00 84 1008.3
20260505075559 11 146 0.0 0.0 0.00 0.00 0.00 83 1008.3
20260505075058 12 146 0.0 0.0 0.00 0.00 0.00 83 1008.2
20260505074557 12 146 0.0 0.0 0.00 0.00 0.00 82 1008.3
20260505074056 12 146 0.0 0.0 0.00 0.00 0.00 82 1008.3
20260505073555 12 146 0.0 0.0 0.00 0.00 0.00 81 1008.1
20260505073055 12 146 0.0 0.0 0.00 0.00 0.00 81 1008.0
20260505072551 12 146 0.0 0.0 0.00 0.00 0.00 80 1008.1
20260505072050 12 146 0.0 0.0 0.00 0.00 0.00 80 1008.1
20260505071550 12 146 0.0 0.0 0.00 0.00 0.00 80 1008.1
20260505071050 13 146 0.0 0.0 0.00 0.00 0.00 80 1008.1
20260505070549 13 146 0.0 0.0 0.00 0.00 0.00 80 1008.1
20260505070053 13 146 0.0 0.0 0.00 0.00 0.00 79 1008.1
20260505065548 13 146 0.0 0.0 0.00 0.00 0.00 79 1008.1
20260505065047 13 146 0.0 0.0 0.00 0.00 0.00 80 1008.2
20260505064547 13 146 0.0 0.0 0.00 0.00 0.00 81 1008.1
20260505064048 13 146 0.0 0.0 0.00 0.00 0.00 80 1008.2
20260505063516 13 146 0.0 0.0 0.00 0.00 0.00 81 1008.2
20260505063016 13 146 0.0 0.0 0.00 0.00 0.00 82 1008.2
20260505062516 13 146 0.0 0.0 0.00 0.00 0.00 82 1008.3
20260505062016 13 146 0.0 0.0 0.00 0.00 0.00 82 1008.2
20260505061615 13 146 0.0 0.0 0.00 0.00 0.00 81 1008.3
20260505061014 13 146 0.0 0.0 0.00 0.00 0.00 81 1008.3
20260505060517 13 146 0.0 0.0 0.00 0.00 0.00 81 1008.4
20260505060012 13 146 0.0 0.0 0.00 0.00 0.00 81 1008.3
20260505055511 13 146 0.0 0.0 0.00 0.00 0.00 79 1008.4
20260505055111 13 146 0.0 0.0 0.00 0.00 0.00 79 1008.4
20260505054511 13 146 0.0 0.0 0.00 0.00 0.00 78 1008.3
20260505054009 13 146 0.0 0.0 0.00 0.00 0.00 78 1008.4
20260505053514 13 146 0.0 0.0 0.00 0.00 0.00 77 1008.4
20260505053012 13 146 0.0 0.0 0.00 0.00 0.00 77 1008.4
20260505052609 13 146 0.0 0.0 0.00 0.00 0.00 77 1008.4
20260505052008 13 146 0.0 0.0 0.00 0.00 0.00 76 1008.4
20260505051512 13 146 0.0 0.0 0.00 0.00 0.00 76 1008.4
20260505051007 13 146 0.0 0.0 0.00 0.00 0.00 76 1008.3
20260505050509 13 146 0.0 0.0 0.00 0.00 0.00 76 1008.4
20260505041558 13 146 0.0 0.0 0.00 0.00 0.00 76 1008.1
20260505041056 13 146 0.0 0.0 0.00 0.00 0.00 75 1008.0
20260505040554 13 146 0.0 0.0 0.00 0.00 0.00 75 1008.0
20260505040054 13 146 0.0 0.0 0.00 0.00 0.00 75 1008.0
20260505035550 13 146 0.0 0.0 0.00 0.00 0.00 76 1008.1
20260505035053 13 146 0.0 0.0 0.00 0.00 0.00 76 1008.0
20260505034549 13 146 0.0 0.0 0.00 0.00 0.00 76 1008.0
20260505034054 13 146 0.0 0.0 0.00 0.00 0.00 75 1008.0
20260505033552 13 146 0.0 0.0 0.00 0.00 0.00 74 1008.0
20260505033048 13 146 0.0 0.0 0.00 0.00 0.00 74 1008.0
20260505032548 13 146 0.0 0.0 0.00 0.00 0.00 73 1008.0
20260505032046 13 146 0.0 0.0 0.00 0.00 0.00 73 1008.1
20260505031555 13 146 0.0 0.0 0.00 0.00 0.00 72 1008.1
20260505031046 13 146 0.0 0.0 0.00 0.00 0.00 70 1008.1
20260505030547 14 146 0.0 0.0 0.00 0.00 0.00 70 1008.1
20260505030046 14 146 0.0 0.0 0.00 0.00 0.00 70 1008.1
20260505025546 14 146 0.0 0.0 0.00 0.00 0.00 69 1008.1
20260505025045 15 146 0.0 0.0 0.00 0.00 0.00 68 1008.1
20260505024556 15 146 0.0 0.0 0.00 0.00 0.00 69 1008.0
20260505024045 15 146 0.0 0.0 0.00 0.00 0.00 66 1007.9
20260505023545 15 146 0.0 0.0 0.00 0.00 0.00 65 1007.8
20260505023015 15 146 0.0 0.0 0.00 0.00 0.00 65 1007.8
20260505022515 15 146 0.0 0.0 0.00 0.00 0.00 64 1007.8
20260505022015 15 146 0.0 0.0 0.00 0.00 0.00 62 1007.8
20260505021515 16 146 0.0 0.0 0.00 0.00 0.00 62 1007.9
20260505021015 16 146 0.0 0.0 0.00 0.00 0.00 62 1007.9
20260505020514 16 146 0.0 0.0 0.00 0.00 0.00 61 1007.9
20260505020044 16 146 0.0 0.0 0.00 0.00 0.00 61 1007.9
20260505015548 16 146 0.0 0.0 0.00 0.00 0.00 59 1007.9
20260505015044 16 146 0.0 0.0 0.00 0.00 0.00 58 1007.9
20260505014602 17 146 0.0 0.0 0.00 0.00 0.00 58 1007.9
20260505014043 17 146 0.0 0.0 0.00 0.00 0.00 56 1007.8
20260505013543 17 146 0.0 0.0 0.00 0.00 0.00 55 1007.8
20260505013012 17 146 0.0 0.0 0.00 0.00 0.00 55 1007.7
20260505012512 18 146 0.0 0.0 0.00 0.00 0.00 53 1007.8
20260505012012 18 146 0.0 0.0 0.00 0.00 0.00 53 1007.7
20260505011514 18 146 0.0 0.0 0.00 0.00 0.00 51 1007.8
20260505011011 18 146 0.0 0.0 0.00 0.00 0.00 50 1007.7
20260505010512 19 146 0.0 0.0 0.00 0.00 0.00 49 1007.6
20260505010009 19 146 0.0 0.0 0.00 0.00 0.00 48 1007.5
20260505005509 19 161 0.0 0.0 0.00 0.00 0.00 48 1007.4
20260505005009 20 161 0.0 0.0 0.00 0.00 0.00 47 1007.3
20260505004510 20 161 0.0 0.0 0.00 0.00 0.00 46 1007.3
20260505004010 20 161 0.0 0.0 0.00 0.00 0.00 46 1007.2
20260505003513 20 122 0.0 0.0 0.00 0.00 0.00 44 1007.1
20260505003009 20 123 0.0 0.0 0.00 0.00 0.00 45 1007.2
20260505002508 21 271 0.0 0.0 0.00 0.00 0.00 44 1007.2
20260505002008 21 137 0.0 0.0 0.00 0.00 0.00 43 1007.1
20260505001508 21 205 0.0 0.0 0.00 0.00 0.00 43 1007.1
20260505001008 21 167 0.0 0.0 0.00 0.00 0.00 42 1007.1
20260505000514 21 119 0.0 0.0 0.00 0.00 0.00 42 1007.0
20260505000010 21 168 0.0 0.0 0.00 0.00 0.00 41 1007.1
20260504235507 21 171 0.0 0.0 0.00 0.00 0.00 41 1007.0
20260504235004 21 130 0.0 0.0 0.00 0.00 0.00 41 1006.9
20260504234503 21 173 0.0 0.0 0.00 0.00 0.00 41 1006.9
20260504234003 21 160 0.0 0.0 0.00 0.00 0.00 41 1006.9
20260504233504 21 158 0.0 0.0 0.00 0.00 0.00 40 1006.8
20260504233003 22 141 0.0 0.0 0.00 0.00 0.00 41 1006.8
20260504232501 22 214 0.0 0.0 0.00 0.00 0.00 40 1006.8
20260504232001 22 137 0.0 0.0 0.00 0.00 0.00 40 1006.8
20260504231501 22 201 0.0 0.0 0.00 0.00 0.00 40 1006.8
20260504231002 22 142 0.0 0.0 0.00 0.00 0.00 41 1006.8
20260504230600 22 146 0.0 0.0 0.00 0.00 0.00 40 1006.8
20260504230501 22 115 0.0 0.0 0.00 0.00 0.00 40 1006.8
20260504230101 22 276 0.0 0.0 0.00 0.00 0.00 39 1006.9
20260504225557 22 141 0.0 0.0 0.00 0.00 0.00 39 1006.8
20260504225057 22 137 0.0 0.0 0.00 0.00 0.00 40 1006.9
20260504224607 22 119 0.0 0.0 0.00 0.00 0.00 39 1006.9
20260504224057 22 149 0.0 0.0 0.00 0.00 0.00 39 1006.9
20260504223557 22 214 0.0 0.0 0.00 0.00 0.00 39 1006.8
20260504223133 22 279 0.0 0.0 0.00 0.00 0.00 39 1006.9
20260504222557 22 252 0.0 0.0 0.00 0.00 0.00 38 1007.0
20260504222057 23 217 0.0 0.0 0.00 0.00 0.00 38 1007.0
20260504221557 23 146 0.0 0.0 0.00 0.00 0.00 37 1007.0
20260504221100 23 104 0.0 0.0 0.00 0.00 0.00 38 1007.1
20260504220556 23 139 0.0 0.0 0.00 0.00 0.00 37 1007.0
20260504220057 23 190 0.0 0.0 0.00 0.00 0.00 38 1007.0
20260504215525 23 175 0.0 0.0 0.00 0.00 0.00 38 1007.0
20260504215024 23 186 0.0 0.0 0.00 0.00 0.00 37 1007.0
20260504214526 23 252 0.0 0.0 0.00 0.00 0.00 37 1007.0
20260504214023 23 125 0.0 0.0 0.00 0.00 0.00 38 1007.0
20260504213525 23 188 0.0 0.0 0.00 0.00 0.00 38 1007.1
20260504213034 23 136 0.0 0.0 0.00 0.00 0.00 37 1007.0
20260504212553 23 166 0.0 0.0 0.00 0.00 0.00 39 1007.1
20260504212052 23 151 0.0 0.0 0.00 0.00 0.00 39 1007.0
20260504211551 23 154 0.0 0.0 0.00 0.00 0.00 38 1007.0
20260504211051 23 161 0.0 0.0 0.00 0.00 0.00 39 1007.0
20260504210551 23 133 0.0 0.0 0.00 0.00 0.00 38 1007.0
20260504210056 23 141 0.0 0.0 0.00 0.00 0.00 38 1007.0
20260504205547 23 153 0.0 0.0 0.00 0.00 0.00 38 1007.0
20260504205047 23 126 0.0 0.0 0.00 0.00 0.00 38 1007.0
20260504204549 23 183 0.0 0.0 0.00 0.00 0.00 38 1007.1
20260504204043 23 193 0.0 0.0 0.00 0.00 0.00 39 1007.1
20260504203542 23 148 0.0 0.0 0.00 0.00 0.00 40 1007.1
20260504203058 23 150 0.0 0.0 0.00 0.00 0.00 38 1007.2
20260504202541 23 148 0.0 0.0 0.00 0.00 0.00 39 1007.3
20260504202043 23 136 0.0 0.0 0.00 0.00 0.00 37 1007.4
20260504201539 23 166 0.0 0.0 0.00 0.00 0.00 37 1007.5
20260504201038 23 212 0.0 0.0 0.00 0.00 0.00 37 1007.5
20260504200536 23 165 0.0 0.0 0.00 0.00 0.00 39 1007.6
20260504200036 22 192 0.0 0.0 0.00 0.00 0.00 39 1007.7
20260504195538 22 181 0.0 0.0 0.00 0.00 0.00 40 1007.8
20260504195534 22 175 0.0 0.0 0.00 0.00 0.00 40 1007.8
20260504195032 22 140 0.0 0.0 0.00 0.00 0.00 37 1007.9
20260504194531 22 91 0.0 0.0 0.00 0.00 0.00 37 1008.0
20260504194030 22 185 0.0 0.0 0.00 0.00 0.00 37 1008.1
20260504193530 22 193 0.0 0.0 0.00 0.00 0.00 38 1008.2
20260504193029 22 204 0.0 0.0 0.00 0.00 0.00 41 1008.1
20260504192530 22 146 0.0 0.0 0.00 0.00 0.00 40 1008.3
20260504192528 22 148 0.0 0.0 0.00 0.00 0.00 40 1008.3
20260504192027 22 146 0.0 0.0 0.00 0.00 0.00 37 1008.4